Orbital elements:
2012 JB16 Earth MOID = 0.2413 AU
Epoch 2012 Mar. 14.0 TT = JDT 2456000.5 MPC
M 316.50364 (2000.0) P Q
n 0.43602931 Peri. 189.53874 -0.20254457 +0.81210955
a 1.7223666 Node 70.46866 -0.85584404 +0.12478130
e 0.2728465 Incl. 35.49515 -0.47592718 -0.57000676
P 2.26 H 19.6 G 0.15 U 8